Time,TemperatureF,DewpointF,PressureIn,WindDirection,WindDirectionDegrees,WindSpeedMPH,WindSpeedGustMPH,Humidity,HourlyPrecipIn,Conditions,Clouds,dailyrainin,SoftwareType,DateUTC
2013-04-10 00:02:00,73.0,68.0,29.36,ESE,108,4.0,11.0,83,0.00,,,0.00,,2013-04-10 05:02:00,
2013-04-10 00:13:00,73.0,68.0,29.36,ESE,108,4.0,11.0,83,0.00,,,0.00,,2013-04-10 05:13:00,
2013-04-10 00:23:00,73.0,68.0,29.36,East,101,5.0,9.0,83,0.00,,,0.00,,2013-04-10 05:23:00,
2013-04-10 00:33:00,73.0,67.0,29.36,East,101,6.0,13.0,82,0.00,,,0.00,,2013-04-10 05:33:00,
2013-04-10 00:42:00,73.0,67.0,29.36,East,101,6.0,13.0,82,0.00,,,0.00,,2013-04-10 05:42:00,
2013-04-10 00:52:00,73.0,67.0,29.37,SE,124,6.0,11.0,82,0.00,,,0.00,,2013-04-10 05:52:00,
2013-04-10 01:03:00,73.0,67.0,29.37,SE,133,5.0,14.0,82,0.00,,,0.00,,2013-04-10 06:03:00,
2013-04-10 01:12:00,73.0,67.0,29.36,SSE,156,5.0,11.0,82,0.00,,,0.00,,2013-04-10 06:12:00,
2013-04-10 01:22:00,73.0,67.0,29.36,SSE,156,5.0,11.0,82,0.00,,,0.00,,2013-04-10 06:22:00,
2013-04-10 01:32:00,73.0,67.0,29.36,SE,127,8.0,15.0,82,0.00,,,0.00,,2013-04-10 06:32:00,
2013-04-10 01:42:00,73.0,67.0,29.36,SE,127,8.0,15.0,82,0.00,,,0.00,,2013-04-10 06:42:00,
2013-04-10 01:52:00,73.0,68.0,29.36,ESE,123,7.0,15.0,83,0.00,,,0.00,,2013-04-10 06:52:00,
2013-04-10 02:02:00,72.0,67.0,29.36,SE,128,6.0,15.0,83,0.00,,,0.00,,2013-04-10 07:02:00,
2013-04-10 02:12:00,72.0,67.0,29.36,SE,128,6.0,15.0,83,0.00,,,0.00,,2013-04-10 07:12:00,
2013-04-10 02:22:00,72.0,67.0,29.36,SSE,147,5.0,11.0,84,0.00,,,0.00,,2013-04-10 07:22:00,
2013-04-10 02:32:00,72.0,67.0,29.38,SSE,166,5.0,10.0,84,0.00,,,0.00,,2013-04-10 07:32:00,
2013-04-10 02:42:00,72.0,67.0,29.38,SSE,166,5.0,10.0,84,0.00,,,0.00,,2013-04-10 07:42:00,
2013-04-10 02:52:00,72.0,67.0,29.39,South,175,1.0,8.0,83,0.00,,,0.00,,2013-04-10 07:52:00,
2013-04-10 03:02:00,63.0,51.0,29.41,NW,311,8.0,22.0,64,0.00,,,0.00,,2013-04-10 08:02:00,
2013-04-10 03:12:00,63.0,51.0,29.41,NW,311,8.0,22.0,64,0.00,,,0.00,,2013-04-10 08:12:00,
2013-04-10 03:22:00,54.0,48.0,29.41,WNW,288,7.0,15.0,79,0.00,,,0.00,,2013-04-10 08:22:00,
2013-04-10 03:32:00,51.0,47.0,29.41,WNW,294,5.0,13.0,85,0.00,,,0.00,,2013-04-10 08:32:00,
2013-04-10 03:42:00,51.0,47.0,29.41,WNW,294,5.0,13.0,85,0.00,,,0.00,,2013-04-10 08:42:00,
2013-04-10 03:52:00,48.0,44.0,29.42,NW,308,7.0,16.0,85,0.00,,,0.00,,2013-04-10 08:52:00,
2013-04-10 04:02:00,47.0,43.0,29.42,West,268,4.0,16.0,86,0.00,,,0.00,,2013-04-10 09:02:00,
2013-04-10 04:12:00,46.0,42.0,29.43,NW,325,5.0,14.0,87,0.00,,,0.00,,2013-04-10 09:12:00,
2013-04-10 04:22:00,46.0,42.0,29.43,NW,325,5.0,14.0,87,0.00,,,0.00,,2013-04-10 09:22:00,
2013-04-10 04:32:00,46.0,43.0,29.44,West,271,6.0,13.0,88,0.00,,,0.00,,2013-04-10 09:32:00,
2013-04-10 04:43:00,46.0,43.0,29.44,West,271,6.0,13.0,88,0.00,,,0.00,,2013-04-10 09:43:00,
2013-04-10 04:52:00,45.0,42.0,29.46,West,281,3.0,11.0,88,0.01,,,0.01,,2013-04-10 09:52:00,
2013-04-10 05:03:00,45.0,42.0,29.45,WNW,284,5.0,13.0,88,0.01,,,0.01,,2013-04-10 10:03:00,
2013-04-10 05:13:00,44.0,40.0,29.46,WNW,296,6.0,13.0,87,0.01,,,0.01,,2013-04-10 10:13:00,
2013-04-10 05:23:00,44.0,40.0,29.46,WNW,296,6.0,13.0,87,0.01,,,0.01,,2013-04-10 10:23:00,
2013-04-10 05:33:00,45.0,41.0,29.48,WNW,299,6.0,14.0,87,0.01,,,0.01,,2013-04-10 10:33:00,
2013-04-10 05:42:00,45.0,41.0,29.48,WNW,299,6.0,14.0,87,0.01,,,0.01,,2013-04-10 10:42:00,
2013-04-10 05:52:00,45.0,41.0,29.51,WNW,294,7.0,14.0,87,0.00,,,0.01,,2013-04-10 10:52:00,
2013-04-10 06:02:00,44.0,41.0,29.50,WNW,289,5.0,12.0,89,0.00,,,0.01,,2013-04-10 11:02:00,
2013-04-10 06:12:00,44.0,41.0,29.50,WNW,289,5.0,12.0,89,0.00,,,0.01,,2013-04-10 11:12:00,
2013-04-10 06:22:00,44.0,42.0,29.52,WNW,295,5.0,13.0,91,0.02,,,0.03,,2013-04-10 11:22:00,
2013-04-10 06:32:00,43.0,41.0,29.51,North,5,5.0,12.0,92,0.02,,,0.03,,2013-04-10 11:32:00,
2013-04-10 06:42:00,43.0,41.0,29.51,North,5,5.0,12.0,92,0.02,,,0.03,,2013-04-10 11:42:00,
2013-04-10 06:52:00,43.0,41.0,29.52,NW,305,4.0,11.0,92,0.02,,,0.03,,2013-04-10 11:52:00,
2013-04-10 07:12:00,43.0,41.0,29.52,West,278,5.0,12.0,91,0.02,,,0.03,,2013-04-10 12:12:00,
2013-04-10 07:22:00,43.0,40.0,29.52,WNW,288,6.0,13.0,90,0.00,,,0.03,,2013-04-10 12:22:00,
2013-04-10 07:33:00,43.0,41.0,29.52,NW,325,5.0,14.0,91,0.01,,,0.04,,2013-04-10 12:33:00,
2013-04-10 07:42:00,43.0,41.0,29.52,NW,325,5.0,14.0,91,0.01,,,0.04,,2013-04-10 12:42:00,
2013-04-10 07:52:00,43.0,41.0,29.52,NNW,335,6.0,13.0,92,0.02,,,0.05,,2013-04-10 12:52:00,
2013-04-10 08:02:00,43.0,41.0,29.54,NNW,327,5.0,10.0,92,0.02,,,0.05,,2013-04-10 13:02:00,
2013-04-10 08:12:00,43.0,41.0,29.54,NNW,327,5.0,10.0,92,0.02,,,0.05,,2013-04-10 13:12:00,
2013-04-10 08:23:00,43.0,41.0,29.54,NW,325,3.0,10.0,92,0.02,,,0.05,,2013-04-10 13:23:00,
2013-04-10 08:32:00,43.0,40.0,29.57,NW,304,5.0,17.0,90,0.01,,,0.05,,2013-04-10 13:32:00,
2013-04-10 08:43:00,43.0,40.0,29.57,NW,304,5.0,17.0,90,0.01,,,0.05,,2013-04-10 13:43:00,
2013-04-10 08:52:00,41.0,39.0,29.57,West,271,6.0,14.0,91,0.00,,,0.05,,2013-04-10 13:52:00,
2013-04-10 09:02:00,41.0,39.0,29.57,NNW,331,7.0,13.0,91,0.00,,,0.05,,2013-04-10 14:02:00,
2013-04-10 09:12:00,41.0,39.0,29.57,NNW,331,7.0,13.0,91,0.00,,,0.05,,2013-04-10 14:12:00,
2013-04-10 09:22:00,41.0,39.0,29.56,West,277,5.0,16.0,92,0.01,,,0.06,,2013-04-10 14:22:00,
2013-04-10 09:32:00,41.0,39.0,29.54,WNW,294,6.0,13.0,92,0.01,,,0.06,,2013-04-10 14:32:00,
2013-04-10 09:42:00,41.0,39.0,29.54,WNW,294,6.0,13.0,92,0.01,,,0.06,,2013-04-10 14:42:00,
2013-04-10 09:52:00,41.0,39.0,29.55,West,280,3.0,10.0,92,0.01,,,0.06,,2013-04-10 14:52:00,
2013-04-10 10:02:00,41.0,39.0,29.56,NNW,343,4.0,11.0,92,0.01,,,0.06,,2013-04-10 15:02:00,
2013-04-10 10:12:00,41.0,39.0,29.56,NNW,343,4.0,11.0,92,0.01,,,0.06,,2013-04-10 15:12:00,
2013-04-10 10:22:00,41.0,39.0,29.57,West,281,3.0,11.0,92,0.01,,,0.07,,2013-04-10 15:22:00,
2013-04-10 10:32:00,40.0,38.0,29.58,WNW,288,4.0,10.0,92,0.01,,,0.07,,2013-04-10 15:32:00,
2013-04-10 10:42:00,40.0,38.0,29.58,WNW,288,4.0,10.0,92,0.01,,,0.07,,2013-04-10 15:42:00,
2013-04-10 10:52:00,40.0,38.0,29.62,West,267,4.0,13.0,93,0.03,,,0.09,,2013-04-10 15:52:00,
2013-04-10 11:03:00,40.0,38.0,29.61,WNW,296,4.0,14.0,93,0.06,,,0.12,,2013-04-10 16:03:00,
2013-04-10 11:13:00,40.0,38.0,29.61,WNW,296,4.0,14.0,93,0.06,,,0.12,,2013-04-10 16:13:00,
2013-04-10 11:23:00,40.0,38.0,29.63,WNW,290,5.0,13.0,93,0.06,,,0.13,,2013-04-10 16:23:00,
2013-04-10 11:33:00,39.0,37.0,29.63,West,261,6.0,14.0,93,0.05,,,0.13,,2013-04-10 16:33:00,
2013-04-10 11:43:00,39.0,37.0,29.63,West,261,6.0,14.0,93,0.05,,,0.13,,2013-04-10 16:43:00,
2013-04-10 11:52:00,39.0,37.0,29.58,WNW,298,5.0,16.0,93,0.04,,,0.13,,2013-04-10 16:52:00,
2013-04-10 12:02:00,39.0,37.0,29.60,NW,315,7.0,12.0,93,0.02,,,0.14,,2013-04-10 17:02:00,
2013-04-10 12:12:00,38.0,36.0,29.60,WNW,302,4.0,13.0,93,0.01,,,0.14,,2013-04-10 17:12:00,
2013-04-10 12:22:00,38.0,36.0,29.60,WNW,302,4.0,13.0,93,0.01,,,0.14,,2013-04-10 17:22:00,
2013-04-10 12:33:00,39.0,37.0,29.62,WNW,290,5.0,12.0,94,0.03,,,0.16,,2013-04-10 17:33:00,
2013-04-10 12:43:00,39.0,37.0,29.62,WNW,290,5.0,12.0,94,0.03,,,0.16,,2013-04-10 17:43:00,
2013-04-10 12:52:00,39.0,37.0,29.63,WNW,286,7.0,13.0,93,0.03,,,0.17,,2013-04-10 17:52:00,
2013-04-10 13:03:00,39.0,37.0,29.62,West,278,5.0,17.0,92,0.03,,,0.17,,2013-04-10 18:03:00,
2013-04-10 13:12:00,39.0,37.0,29.62,West,278,5.0,17.0,92,0.03,,,0.17,,2013-04-10 18:12:00,
2013-04-10 13:23:00,39.0,37.0,29.61,NW,325,7.0,12.0,93,0.03,,,0.17,,2013-04-10 18:23:00,
2013-04-10 13:33:00,40.0,38.0,29.62,WNW,285,6.0,18.0,91,0.01,,,0.17,,2013-04-10 18:33:00,
2013-04-10 13:42:00,40.0,38.0,29.62,WNW,285,6.0,18.0,91,0.01,,,0.17,,2013-04-10 18:42:00,
2013-04-10 13:52:00,40.0,38.0,29.60,NW,306,4.0,11.0,93,0.00,,,0.17,,2013-04-10 18:52:00,
2013-04-10 14:03:00,39.0,37.0,29.60,NW,317,6.0,11.0,91,0.00,,,0.17,,2013-04-10 19:03:00,
2013-04-10 14:12:00,39.0,37.0,29.60,NW,317,6.0,11.0,91,0.00,,,0.17,,2013-04-10 19:12:00,
2013-04-10 14:22:00,39.0,37.0,29.60,West,278,5.0,15.0,91,0.00,,,0.17,,2013-04-10 19:22:00,
2013-04-10 14:33:00,40.0,38.0,29.60,NW,318,3.0,14.0,91,0.00,,,0.17,,2013-04-10 19:33:00,
2013-04-10 14:42:00,40.0,38.0,29.60,NW,318,3.0,14.0,91,0.00,,,0.17,,2013-04-10 19:42:00,
2013-04-10 14:52:00,40.0,37.0,29.60,WNW,299,5.0,13.0,89,0.00,,,0.17,,2013-04-10 19:52:00,
2013-04-10 15:03:00,41.0,38.0,29.59,West,280,5.0,10.0,89,0.00,,,0.17,,2013-04-10 20:03:00,
2013-04-10 15:12:00,41.0,38.0,29.59,West,280,5.0,10.0,89,0.00,,,0.17,,2013-04-10 20:12:00,
2013-04-10 15:23:00,41.0,38.0,29.59,NW,319,8.0,16.0,89,0.00,,,0.17,,2013-04-10 20:23:00,
2013-04-10 15:33:00,41.0,38.0,29.59,West,275,3.0,14.0,89,0.00,,,0.17,,2013-04-10 20:33:00,
2013-04-10 15:42:00,41.0,38.0,29.59,West,275,3.0,14.0,89,0.00,,,0.17,,2013-04-10 20:42:00,
2013-04-10 15:52:00,41.0,37.0,29.58,WSW,248,5.0,14.0,86,0.00,,,0.17,,2013-04-10 20:52:00,
2013-04-10 16:03:00,41.0,37.0,29.58,West,279,8.0,16.0,84,0.00,,,0.17,,2013-04-10 21:03:00,
2013-04-10 16:12:00,41.0,37.0,29.58,West,279,8.0,16.0,84,0.00,,,0.17,,2013-04-10 21:12:00,
2013-04-10 16:22:00,41.0,36.0,29.58,WNW,296,7.0,16.0,83,0.00,,,0.17,,2013-04-10 21:22:00,
2013-04-10 16:33:00,41.0,36.0,29.58,WNW,296,7.0,16.0,83,0.00,,,0.17,,2013-04-10 21:33:00,
2013-04-10 16:43:00,41.0,36.0,29.58,WNW,296,7.0,16.0,83,0.00,,,0.17,,2013-04-10 21:43:00,
2013-04-10 16:53:00,43.0,38.0,29.58,NW,323,6.0,15.0,81,0.00,,,0.17,,2013-04-10 21:53:00,
2013-04-10 17:03:00,43.0,37.0,29.58,NW,315,7.0,16.0,80,0.00,,,0.17,,2013-04-10 22:03:00,
2013-04-10 17:13:00,43.0,37.0,29.58,NW,315,7.0,16.0,80,0.00,,,0.17,,2013-04-10 22:13:00,
2013-04-10 17:23:00,44.0,38.0,29.58,NW,315,5.0,14.0,80,0.00,,,0.17,,2013-04-10 22:23:00,
2013-04-10 17:33:00,45.0,39.0,29.58,NNW,340,4.0,11.0,80,0.00,,,0.17,,2013-04-10 22:33:00,
2013-04-10 17:42:00,45.0,39.0,29.58,NNW,340,4.0,11.0,80,0.00,,,0.17,,2013-04-10 22:42:00,
2013-04-10 17:52:00,45.0,39.0,29.57,WNW,298,3.0,15.0,79,0.00,,,0.17,,2013-04-10 22:52:00,
2013-04-10 18:03:00,45.0,39.0,29.58,WNW,298,3.0,11.0,78,0.00,,,0.17,,2013-04-10 23:03:00,
2013-04-10 18:12:00,45.0,39.0,29.58,WNW,298,3.0,11.0,78,0.00,,,0.17,,2013-04-10 23:12:00,
2013-04-10 18:22:00,46.0,39.0,29.58,NW,323,5.0,13.0,77,0.00,,,0.17,,2013-04-10 23:22:00,
2013-04-10 18:33:00,47.0,39.0,29.57,NNW,338,4.0,12.0,74,0.00,,,0.17,,2013-04-10 23:33:00,
2013-04-10 18:42:00,47.0,39.0,29.57,NNW,338,4.0,12.0,74,0.00,,,0.17,,2013-04-10 23:42:00,
2013-04-10 18:52:00,48.0,40.0,29.58,NW,315,4.0,10.0,73,0.00,,,0.17,,2013-04-10 23:52:00,
2013-04-10 19:02:00,47.0,39.0,29.58,WNW,283,4.0,14.0,73,0.00,,,0.17,,2013-04-11 00:02:00,
2013-04-10 19:12:00,47.0,39.0,29.58,WNW,283,4.0,14.0,73,0.00,,,0.17,,2013-04-11 00:12:00,
2013-04-10 19:22:00,48.0,40.0,29.58,NW,314,3.0,11.0,73,0.00,,,0.17,,2013-04-11 00:22:00,
2013-04-10 19:32:00,47.0,39.0,29.59,NW,325,3.0,10.0,74,0.00,,,0.17,,2013-04-11 00:32:00,
2013-04-10 19:42:00,47.0,39.0,29.59,NW,325,3.0,10.0,74,0.00,,,0.17,,2013-04-11 00:42:00,
2013-04-10 19:52:00,47.0,39.0,29.59,WNW,294,4.0,9.0,75,0.00,,,0.17,,2013-04-11 00:52:00,
2013-04-10 20:02:00,46.0,39.0,29.59,WNW,299,1.0,7.0,76,0.00,,,0.17,,2013-04-11 01:02:00,
2013-04-10 20:12:00,46.0,39.0,29.59,WNW,299,1.0,7.0,76,0.00,,,0.17,,2013-04-11 01:12:00,
2013-04-10 20:22:00,46.0,39.0,29.59,West,277,2.0,8.0,77,0.00,,,0.17,,2013-04-11 01:22:00,
2013-04-10 20:32:00,45.0,39.0,29.59,WNW,296,2.0,8.0,78,0.00,,,0.17,,2013-04-11 01:32:00,
2013-04-10 20:42:00,45.0,39.0,29.59,WNW,296,2.0,8.0,78,0.00,,,0.17,,2013-04-11 01:42:00,
2013-04-10 20:52:00,45.0,39.0,29.61,WNW,288,0.0,4.0,79,0.00,,,0.17,,2013-04-11 01:52:00,
2013-04-10 21:03:00,45.0,39.0,29.61,NW,317,0.0,3.0,80,0.00,,,0.17,,2013-04-11 02:03:00,
2013-04-10 21:12:00,45.0,39.0,29.61,NW,317,0.0,3.0,80,0.00,,,0.17,,2013-04-11 02:12:00,
2013-04-10 21:22:00,45.0,39.0,29.62,North,350,1.0,4.0,80,0.00,,,0.17,,2013-04-11 02:22:00,
2013-04-10 21:32:00,44.0,38.0,29.63,WNW,286,3.0,6.0,80,0.00,,,0.17,,2013-04-11 02:32:00,
2013-04-10 21:42:00,44.0,38.0,29.63,WNW,286,3.0,6.0,80,0.00,,,0.17,,2013-04-11 02:42:00,
2013-04-10 21:52:00,44.0,39.0,29.63,NW,316,2.0,5.0,81,0.00,,,0.17,,2013-04-11 02:52:00,
2013-04-10 22:02:00,44.0,38.0,29.64,WNW,295,3.0,8.0,80,0.00,,,0.17,,2013-04-11 03:02:00,
2013-04-10 22:12:00,44.0,38.0,29.64,WNW,295,3.0,8.0,80,0.00,,,0.17,,2013-04-11 03:12:00,
2013-04-10 22:22:00,44.0,38.0,29.64,West,277,2.0,9.0,80,0.00,,,0.17,,2013-04-11 03:22:00,
2013-04-10 22:33:00,43.0,37.0,29.63,WNW,286,4.0,9.0,79,0.00,,,0.17,,2013-04-11 03:33:00,
2013-04-10 22:43:00,43.0,37.0,29.63,WNW,286,4.0,9.0,79,0.00,,,0.17,,2013-04-11 03:43:00,
2013-04-10 22:53:00,43.0,37.0,29.63,WNW,286,4.0,9.0,79,0.00,,,0.17,,2013-04-11 03:53:00,
2013-04-10 23:03:00,43.0,37.0,29.65,NW,325,3.0,13.0,78,0.00,,,0.17,,2013-04-11 04:03:00,
2013-04-10 23:13:00,42.0,36.0,29.65,NW,311,2.0,10.0,79,0.00,,,0.17,,2013-04-11 04:13:00,
2013-04-10 23:22:00,42.0,36.0,29.65,NW,311,2.0,10.0,79,0.00,,,0.17,,2013-04-11 04:22:00,
2013-04-10 23:33:00,42.0,36.0,29.65,NW,313,4.0,12.0,80,0.00,,,0.17,,2013-04-11 04:33:00,
2013-04-10 23:42:00,42.0,36.0,29.65,NW,313,4.0,12.0,80,0.00,,,0.17,,2013-04-11 04:42:00,
2013-04-10 23:52:00,42.0,36.0,29.65,NW,307,3.0,10.0,80,0.00,,,0.17,,2013-04-11 04:52:00,